Location: Rumah Apan
(2.7833°N, 113.9500°E)
Time: 23:25:27
(UTC+00:00)

Cosmos 1825 Rocket - Pass Details

Date: 25 July 2021
Orbit: 605 x 630 km, 82.5° (Epoch: 22 September)

Event Time Altitude Azimuth Distance (km) Brightness Sun altitude
Rises 11:46:52 0° 183° (S) 2,889 6.8 -16.9°
Reaches altitude 10° 11:49:06 10° 183° (S) 1,978 6.0 -17.4°
Maximum altitude 11:53:29 88° 93° (E) 617 3.4 -18.4°
Drops below altitude 10° 11:57:49 10° 4° (N) 1,956 6.3 -19.4°
Sets 12:00:01 0° 4° (N) 2,854 7.2 -19.9°
